Location: Northcutt
(34.7304°N, 84.4305°W)
Time: 20:24:40
(UTC+00:00)

Transit 2A Rocket - Pass Details

Date: 10 October 2022
Orbit: 589 x 911 km, 66.7° (Epoch: 03 December)

Event Time Altitude Azimuth Distance (km) Brightness Sun altitude
Rises 08:45:28 0° 194° (SSW) 2,856 - -36.1°
Reaches altitude 10° 08:47:46 10° 189° (S) 1,932 - -35.7°
Maximum altitude 08:51:57 52° 113° (ESE) 739 - -34.8°
Exits shadow 08:55:05 17° 41° (NE) 1,536 7.1 -34.2°
Drops below altitude 10° 08:56:06 10° 37° (NE) 1,922 7.6 -34.0°
Sets 08:58:23 0° 33° (NNE) 2,840 8.6 -33.6°
